This is the latest recevied weather packets stored in our database for station/object K2RMB. If no packets are shown the sender has not sent any weather packets the latest 10 day(s).
| Time | Temp. | Humidity | Pressure | Rain* | Wind** | Luminosity | Snow |
|---|---|---|---|---|---|---|---|
| 1777721689 | 6.67° C | 94% | 1012.1 hPa | 0.25 mm | - | 26 W/m² | - |
| 1777721388 | 6.67° C | 94% | 1012.1 hPa | 0.25 mm | - | 41 W/m² | - |
| 1777721085 | 6.67° C | 94% | 1012.5 hPa | 0.25 mm | - | 34 W/m² | - |
| 1777720782 | 6.67° C | 94% | 1012.1 hPa | 0.25 mm | - | 38 W/m² | - |
| 1777720479 | 6.67° C | 94% | 1012.1 hPa | 0 mm | - | 30 W/m² | - |
| 1777720176 | 6.67° C | 94% | 1012.1 hPa | 0 mm | - | 68 W/m² | - |
| 1777719874 | 6.67° C | 94% | 1011.8 hPa | 0 mm | - | 77 W/m² | - |
| 1777719571 | 6.67° C | 94% | 1011.8 hPa | 0 mm | - | 75 W/m² | - |
| 1777719268 | 6.67° C | 94% | 1012.1 hPa | 0 mm | - | 52 W/m² | - |
| 1777718967 | 6.67° C | 94% | 1011.8 hPa | 0 mm | - | 46 W/m² | - |
| 1777718663 | 6.67° C | 94% | 1011.8 hPa | 0 mm | - | 34 W/m² | - |
| 1777718361 | 6.67° C | 94% | 1011.8 hPa | 0 mm | - | 27 W/m² | - |
| 1777718058 | 6.11° C | 94% | 1011.8 hPa | 0 mm | - | 15 W/m² | - |
| 1777717755 | 6.11° C | 94% | 1011.8 hPa | 0 mm | - | 13 W/m² | - |
| 1777717451 | 6.67° C | 94% | 1011.8 hPa | 0 mm | - | 15 W/m² | - |
| 1777717149 | 6.11° C | 94% | 1011.8 hPa | 0 mm | - | 13 W/m² | - |
| 1777716848 | 6.67° C | 94% | 1011.8 hPa | 0 mm | - | 12 W/m² | - |
| 1777716545 | 6.11° C | 94% | 1011.8 hPa | 0 mm | - | 5 W/m² | - |
| 1777716244 | 6.11° C | 94% | 1011.8 hPa | 0 mm | - | 2 W/m² | - |
| 1777715941 | 6.11° C | 94% | 1011.8 hPa | 0 mm | - | 1 W/m² | - |
| 1777715639 | 6.11° C | 94% | 1011.5 hPa | 0 mm | - | 1 W/m² | - |
| 1777715337 | 6.11° C | 94% | 1011.5 hPa | 0 mm | - | 1 W/m² | - |
| 1777715034 | 6.11° C | 94% | 1011.5 hPa | 0 mm | - | 1 W/m² | - |
| 1777714732 | 6.67° C | 94% | 1011.5 hPa | 0 mm | - | 1 W/m² | - |
| 1777714430 | 6.67° C | 94% | 1011.5 hPa | 0 mm | - | 0 W/m² | - |
* Rain latest hour (hover to see other rain measurements)
** Current wind speed in m/s (hover to see current wind gust speed)